Regional Weather Roundup
Issued by NWS

Home | Current Version | Previous Version | Graphics & Text | Print | Product List | Glossary On
Versions: 1 2 3 4 5 6 7 8 9 10 11 12 13 14 15 16 17 18 19 20 21 22 23 24 25 26 27 28 29 30 31 32 33 34 35 36 37 38 39 40 41 42 43 44 45 46 47 48 49 50
857
ASUS45 KABQ 221401
RWRNM
NEW MEXICO REGIONAL WEATHER ROUNDUP
NATIONAL WEATHER SERVICE ALBUQUERQUE NM
700 AM MST WED NOV 22 2017

NOTE: "FAIR" MEANS FEW OR NO CLOUDS BELOW 12,000 FEET AGL WITH NO
       SIGNIFICANT WEATHER OR OBSTRUCTIONS TO VISION.

      THIS PRODUCT IS RELEASED AS TWO VERSIONS.  ONE VERSION NEAR
      THE TOP OF THE HOUR CONTAINING PRELIMINARY DATA FROM ALBUQUERQUE
      AND OTHER STATIONS.  A FINAL VERSION WITH ADDITIONAL DATA IS
      ISSUED ABOUT 10 MINUTES AFTER THE HOUR.

NMZ501-503-504-510>518-221500-
NORTHWEST PLATEAU/NORTHCENTRAL MOUNTAINS

CITY           SKY/WX    TMP DP  RH WIND       PRES   REMARKS
FARMINGTON     FAIR      29  19  66 E8        30.41R WCI  21
LOS ALAMOS     FAIR      35  27  72 N3        30.43S
SANTA FE       FAIR      31  27  85 N7        30.42R WCI  24
ANGEL FIRE     FAIR      23  21  93 CALM      30.46R

$$
NMZ402-403-502-505>509-221500-
WESTCENTRAL MOUNTAINS/SOUTHWEST MOUNTAINS

CITY           SKY/WX    TMP DP  RH WIND       PRES   REMARKS
GALLUP         FAIR      23  17  78 CALM      30.45R
GRANTS         FAIR      26  19  76 NW14      30.46R WCI  14
SILVER CITY    FAIR      35  18  50 N7        30.41R WCI  29

$$
NMZ407-409-411-412-221500-
SOUTHERN DESERTS

CITY           SKY/WX    TMP DP  RH WIND       PRES   REMARKS
DEMING         FAIR      39  21  48 NE8       30.39R WCI  33
LAS CRUCES     FAIR      37  24  57 CALM      30.41R
ALAMOGORDO     FAIR      39  23  52 N7        30.41S WCI  34
T OR C         FAIR      37  19  48 W7        30.40R WCI  32

$$
NMZ519>523-221500-
CENTRAL VALLEYS/CENTRAL HIGHLANDS

CITY           SKY/WX    TMP DP  RH WIND       PRES   REMARKS
ALBUQUERQUE    FAIR      34  24  67 CALM      30.41R
DOUBLE EAGLE   CLEAR     30  19  64 NW6       30.42R WCI  24
MORIARTY ARPT  FAIR      21  16  81 NE3       30.43S
CLINES CORNERS FAIR      31  23  72 NW15      30.39S WCI  20
BELEN          FAIR      31  22  69 N3        30.42R
SOCORRO        FAIR      33  20  60 W5        30.41R WCI  28

$$
NMZ524>526-539-540-221500-
SOUTHCENTRAL MOUNTAINS

CITY           SKY/WX    TMP DP  RH WIND       PRES   REMARKS
RUIDOSO        FAIR      34  21  60 W9        30.43S WCI  26

$$
NMZ527>531-221500-
NORTHEAST HIGHLANDS/NORTHEAST PLAINS

CITY           SKY/WX    TMP DP  RH WIND       PRES   REMARKS
LAS VEGAS      FAIR      28  23  81 N5        30.36S WCI  23
RATON          FAIR      24  20  84 NE7       30.35R WCI  16
CLAYTON        FAIR      36  27  69 W16       30.29S WCI  26

$$
NMZ532>537-221500-
EASTCENTRAL PLAINS

CITY           SKY/WX    TMP DP  RH WIND       PRES   REMARKS
SANTA ROSA     FAIR      28  24  86 S3        30.37R
TUCUMCARI      FAIR      32  25  75 CALM      30.35R
CANNON AFB     MOCLDY    34  29  80 W6        30.39S WCI  29
CLOVIS AIRPORT FAIR      28  23  81 W3        30.38F

$$
NMZ028-029-538-221500-
SOUTHEAST PLAINS

CITY           SKY/WX    TMP DP  RH WIND       PRES   REMARKS
ROSWELL        FAIR      32  23  69 CALM      30.40R
ARTESIA        FAIR      36  25  64 SW6       30.42R WCI  31
CARLSBAD       FAIR      31  27  85 SW5       30.41R WCI  26
HOBBS          CLEAR     30  25  80 W6        30.44R WCI  24


$$




USA.gov is the U.S. government's official web portal to all federal, state and local government web resources and services.